DW0148 Weather Reports


Display with metric or nautical units.
time (UTC)temp
F
wind
direction
speed
MPH
gust
MPH
rain 1hr
in
rain 24hr
in
rain mn
in
humidity
%
barometer
mb
20180118100239 9 60 0.0 1.0 0.00 0.00 0.00 87 1037.4
20180118095738 9 60 0.0 1.0 0.00 0.00 0.00 87 1037.4
20180118095237 9 60 0.0 1.0 0.00 0.00 0.00 88 1037.4
20180118094736 9 60 1.0 1.0 0.00 0.00 0.00 88 1037.4
20180118094235 9 60 1.0 1.0 0.00 0.00 0.00 88 1037.4
20180118093734 9 60 1.0 1.0 0.00 0.00 0.00 88 1037.4
20180118093234 9 60 0.0 1.0 0.00 0.00 0.00 88 1037.4
20180118092733 9 59 0.0 1.0 0.00 0.00 0.00 88 1037.4
20180118092232 9 59 0.0 1.0 0.00 0.00 0.00 88 1037.4
20180118091731 9 58 1.0 1.0 0.00 0.00 0.00 88 1037.4
20180118091230 9 58 0.0 1.0 0.00 0.00 0.00 88 1037.4
20180118090730 9 58 0.0 0.0 0.00 0.00 0.00 88 1037.4
20180118090229 9 58 0.0 1.0 0.00 0.00 0.00 88 1037.4
20180118085728 9 58 0.0 1.0 0.00 0.00 0.00 88 1037.4
20180118085228 9 58 0.0 1.0 0.00 0.00 0.00 88 1037.4
20180118084727 9 58 0.0 1.0 0.00 0.00 0.00 88 1037.8
20180118084226 9 58 0.0 0.0 0.00 0.00 0.00 88 1037.4
20180118083725 9 58 0.0 0.0 0.00 0.00 0.00 88 1037.4
20180118083224 9 58 0.0 0.0 0.00 0.00 0.00 88 1037.4
20180118082723 9 58 0.0 0.0 0.00 0.00 0.00 87 1037.4
20180118082222 9 58 0.0 0.0 0.00 0.00 0.00 88 1037.4
20180118081721 9 58 0.0 0.0 0.00 0.00 0.00 87 1037.4
20180118081149 9 58 0.0 0.0 0.00 0.00 0.00 88 1037.4
20180118080649 9 58 0.0 0.0 0.00 0.00 0.00 87 1037.4
20180118080148 9 58 0.0 1.0 0.00 0.00 0.00 87 1037.1
20180118075648 9 58 0.0 1.0 0.00 0.00 0.00 87 1037.1
20180118075146 9 58 0.0 1.0 0.00 0.00 0.00 87 1037.1
20180118074614 9 58 0.0 0.0 0.00 0.00 0.00 87 1037.1
20180118074042 9 58 0.0 0.0 0.00 0.00 0.00 87 1037.1
20180118073541 10 58 0.0 0.0 0.00 0.00 0.00 86 1037.1
20180118073040 10 58 0.0 1.0 0.00 0.00 0.00 86 1037.1
20180118072540 10 58 0.0 1.0 0.00 0.00 0.00 86 1037.1
20180118072038 10 58 0.0 1.0 0.00 0.00 0.00 86 1037.1
20180118071538 10 58 0.0 1.0 0.00 0.00 0.00 86 1037.1
20180118071006 10 58 0.0 1.0 0.00 0.00 0.00 86 1037.1
20180118070506 10 58 1.0 1.0 0.00 0.00 0.00 86 1037.1
20180118070005 10 58 0.0 0.0 0.00 0.00 0.00 86 1037.1
20180118065503 10 58 0.0 0.0 0.00 0.00 0.00 86 1037.1
20180118065002 10 58 0.0 0.0 0.00 0.00 0.00 86 1036.7
20180118064502 10 58 0.0 0.0 0.00 0.00 0.00 86 1037.1
20180118064001 10 58 0.0 0.0 0.00 0.00 0.00 86 1037.1
20180118063500 10 58 0.0 0.0 0.00 0.00 0.00 85 1037.1
20180118062959 11 58 0.0 0.0 0.00 0.00 0.00 85 1037.1
20180118062458 11 58 0.0 0.0 0.00 0.00 0.00 84 1037.1
20180118061958 11 58 0.0 0.0 0.00 0.00 0.00 84 1037.1
20180118061457 11 58 0.0 0.0 0.00 0.00 0.00 84 1037.1
20180118060956 11 58 0.0 1.0 0.00 0.00 0.00 83 1037.1
20180118060455 12 58 0.0 1.0 0.00 0.00 0.00 83 1037.1
20180118055954 12 58 0.0 1.0 0.00 0.00 0.00 83 1037.1
20180118055453 12 58 1.0 1.0 0.00 0.00 0.00 82 1037.1
20180118054952 12 58 1.0 2.0 0.00 0.00 0.00 82 1037.1
20180118054452 13 58 1.0 3.0 0.00 0.00 0.00 81 1037.1
20180118053951 13 58 2.0 3.0 0.00 0.00 0.00 81 1037.4
20180118053450 13 60 1.0 3.0 0.00 0.00 0.00 81 1037.4
20180118052950 13 60 0.0 3.0 0.00 0.00 0.00 80 1037.4
20180118052449 13 57 2.0 3.0 0.00 0.00 0.00 81 1037.4
20180118051948 13 57 2.0 3.0 0.00 0.00 0.00 80 1037.4
20180118051447 13 52 1.0 3.0 0.00 0.00 0.00 80 1037.4
20180118050947 13 32 2.0 3.0 0.00 0.00 0.00 80 1037.4
20180118050446 13 28 1.0 2.0 0.00 0.00 0.00 79 1037.4
20180118045945 14 28 1.0 3.0 0.00 0.00 0.00 79 1037.4
20180118045413 14 20 1.0 3.0 0.00 0.00 0.00 78 1037.4
20180118044912 14 27 1.0 4.0 0.00 0.00 0.00 78 1037.8
20180118044412 14 50 1.0 4.0 0.00 0.00 0.00 78 1037.8
20180118043911 14 16 2.0 5.0 0.00 0.00 0.00 77 1037.8
20180118043411 15 4 3.0 5.0 0.00 0.00 0.00 77 1037.8
20180118042838 15 354 1.0 5.0 0.00 0.00 0.00 77 1037.8
20180118042338 15 320 2.0 5.0 0.00 0.00 0.00 77 1037.8
20180118041806 15 348 2.0 5.0 0.00 0.00 0.00 77 1037.8
20180118041305 15 359 2.0 6.0 0.00 0.00 0.00 77 1037.8
20180118040804 15 2 2.0 6.0 0.00 0.00 0.00 77 1037.8
20180118040303 15 262 0.0 8.0 0.00 0.00 0.00 76 1037.8
20180118035802 15 325 3.0 8.0 0.00 0.00 0.00 76 1038.1
20180118035301 15 329 2.0 8.0 0.00 0.00 0.00 76 1038.1
20180118034800 15 336 2.0 10.0 0.00 0.00 0.00 76 1038.1
20180118034259 15 321 2.0 10.0 0.00 0.00 0.00 76 1038.1
20180118033759 15 342 4.0 6.0 0.00 0.00 0.00 76 1038.1
20180118033258 15 332 1.0 6.0 0.00 0.00 0.00 76 1038.1
20180118032726 15 325 1.0 6.0 0.00 0.00 0.00 76 1038.1
20180118032154 15 324 1.0 6.0 0.00 0.00 0.00 75 1038.1
20180118031653 15 342 3.0 7.0 0.00 0.00 0.00 75 1038.1
20180118031152 15 328 2.0 9.0 0.00 0.00 0.00 75 1038.1
20180118030652 15 353 4.0 9.0 0.00 0.00 0.00 76 1038.1
20180118030151 15 342 3.0 8.0 0.00 0.00 0.00 76 1038.1
20180118025650 15 332 2.0 6.0 0.00 0.00 0.00 76 1038.1
20180118025149 15 65 1.0 6.0 0.00 0.00 0.00 76 1038.1
20180118024649 15 53 1.0 6.0 0.00 0.00 0.00 76 1038.1
20180118024117 15 210 0.0 9.0 0.00 0.00 0.00 76 1038.1
20180118023616 15 328 3.0 9.0 0.00 0.00 0.00 76 1038.1
20180118023115 15 275 2.0 8.0 0.00 0.00 0.00 75 1038.1
20180118022543 15 317 3.0 8.0 0.00 0.00 0.00 75 1038.4
20180118022042 15 274 1.0 6.0 0.00 0.00 0.00 76 1038.4
20180118021541 15 320 3.0 9.0 0.00 0.00 0.00 75 1038.4
20180118021040 15 339 2.0 9.0 0.00 0.00 0.00 75 1038.4
20180118020508 15 335 3.0 13.0 0.00 0.00 0.00 74 1038.1
20180118020008 15 351 6.0 13.0 0.00 0.00 0.00 74 1038.4
20180118015507 15 351 2.0 9.0 0.00 0.00 0.00 74 1038.4
20180118015006 15 343 3.0 9.0 0.00 0.00 0.00 74 1038.4
20180118014505 15 325 1.0 9.0 0.00 0.00 0.00 74 1038.4
20180118014005 15 349 2.0 9.0 0.00 0.00 0.00 73 1038.4
20180118013504 15 347 3.0 8.0 0.00 0.00 0.00 73 1038.4
20180118012932 15 6 2.0 8.0 0.00 0.00 0.00 74 1038.4
20180118012431 15 357 3.0 6.0 0.00 0.00 0.00 74 1038.4
20180118011931 15 19 2.0 6.0 0.00 0.00 0.00 73 1038.4
20180118011358 15 274 0.0 6.0 0.00 0.00 0.00 73 1038.4
20180118010858 15 312 2.0 6.0 0.00 0.00 0.00 73 1038.8
20180118010357 15 56 1.0 6.0 0.00 0.00 0.00 73 1038.4
20180118005856 15 356 3.0 6.0 0.00 0.00 0.00 72 1038.8
20180118005355 15 293 1.0 7.0 0.00 0.00 0.00 72 1038.8
20180118004854 15 21 2.0 7.0 0.00 0.00 0.00 72 1038.8
20180118004354 15 328 2.0 10.0 0.00 0.00 0.00 72 1038.8
20180118003853 15 340 2.0 10.0 0.00 0.00 0.00 72 1038.8
20180118003352 15 313 1.0 7.0 0.00 0.00 0.00 72 1038.4
20180118002851 16 358 3.0 7.0 0.00 0.00 0.00 71 1038.4
20180118002351 16 324 3.0 9.0 0.00 0.00 0.00 71 1038.8
20180118001850 16 339 4.0 9.0 0.00 0.00 0.00 72 1038.8
20180118001349 16 358 3.0 8.0 0.00 0.00 0.00 72 1038.4
20180118000817 16 343 3.0 9.0 0.00 0.00 0.00 71 1038.8
20180118000317 16 348 4.0 9.0 0.00 0.00 0.00 71 1038.4
20180117235816 16 3 2.0 6.0 0.00 0.00 0.00 71 1038.4
20180117235315 16 274 2.0 8.0 0.00 0.00 0.00 71 1038.4
20180117234743 16 87 2.0 8.0 0.00 0.00 0.00 70 1038.4
20180117234242 16 247 2.0 8.0 0.00 0.00 0.00 70 1038.4
20180117233741 16 233 3.0 8.0 0.00 0.00 0.00 70 1038.4
20180117233240 16 141 1.0 5.0 0.00 0.00 0.00 70 1038.4
20180117232739 16 259 2.0 5.0 0.00 0.00 0.00 69 1038.4
20180117232239 16 228 2.0 5.0 0.00 0.00 0.00 69 1038.4
20180117231738 17 276 2.0 5.0 0.00 0.00 0.00 68 1038.1
20180117231206 17 248 1.0 6.0 0.00 0.00 0.00 69 1038.1
20180117230706 17 274 2.0 6.0 0.00 0.00 0.00 68 1038.1
20180117230205 17 222 2.0 7.0 0.00 0.00 0.00 67 1038.1
20180117225704 17 267 4.0 8.0 0.00 0.00 0.00 66 1037.8
20180117225132 18 269 3.0 10.0 0.00 0.00 0.00 67 1037.8
20180117224631 18 354 5.0 10.0 0.00 0.00 0.00 66 1037.8
20180117224130 18 218 1.0 13.0 0.00 0.00 0.00 66 1037.8
20180117223629 18 337 3.0 13.0 0.00 0.00 0.00 64 1037.8
20180117223129 18 311 3.0 14.0 0.00 0.00 0.00 65 1037.8
20180117222628 19 332 4.0 14.0 0.00 0.00 0.00 64 1037.8
20180117222127 19 349 4.0 14.0 0.00 0.00 0.00 63 1037.8
20180117221626 19 354 3.0 6.0 0.00 0.00 0.00 62 1037.8
20180117221126 20 253 2.0 6.0 0.00 0.00 0.00 63 1037.8
20180117220625 20 352 2.0 8.0 0.00 0.00 0.00 62 1037.8
20180117220053 20 326 3.0 10.0 0.00 0.00 0.00 62 1037.8
20180117215521 21 353 3.0 10.0 0.00 0.00 0.00 61 1037.8
20180117215020 21 286 2.0 7.0 0.00 0.00 0.00 61 1037.4
20180117214520 21 120 2.0 12.0 0.00 0.00 0.00 61 1037.4
20180117214019 21 286 1.0 12.0 0.00 0.00 0.00 61 1037.4
20180117213518 21 340 5.0 15.0 0.00 0.00 0.00 61 1037.4
20180117213018 21 330 7.0 15.0 0.00 0.00 0.00 59 1037.4
20180117212517 21 245 2.0 11.0 0.00 0.00 0.00 61 1037.4
20180117212013 21 283 3.0 11.0 0.00 0.00 0.00 58 1037.4
20180117211442 22 333 5.0 13.0 0.00 0.00 0.00 58 1037.4
20180117210941 22 289 2.0 13.0 0.00 0.00 0.00 58 1037.4
20180117210440 22 306 2.0 13.0 0.00 0.00 0.00 59 1037.4
20180117205939 22 247 2.0 13.0 0.00 0.00 0.00 59 1037.4
20180117205438 22 329 3.0 13.0 0.00 0.00 0.00 59 1037.1
20180117204937 22 324 3.0 13.0 0.00 0.00 0.00 58 1037.1
20180117204436 22 291 2.0 10.0 0.00 0.00 0.00 58 1037.1
20180117203936 22 13 3.0 10.0 0.00 0.00 0.00 58 1037.1
20180117203435 22 339 5.0 10.0 0.00 0.00 0.00 56 1037.1
20180117202934 22 293 2.0 9.0 0.00 0.00 0.00 60 1037.1
20180117202434 21 335 3.0 11.0 0.00 0.00 0.00 61 1037.1
20180117201902 21 332 2.0 13.0 0.00 0.00 0.00 60 1037.1
20180117201401 21 332 6.0 16.0 0.00 0.00 0.00 58 1037.1
20180117200901 21 356 7.0 16.0 0.00 0.00 0.00 57 1037.1
20180117200400 21 340 5.0 16.0 0.00 0.00 0.00 57 1037.1
20180117195859 21 344 4.0 19.0 0.00 0.00 0.00 59 1037.1
20180117195358 20 318 5.0 19.0 0.00 0.00 0.00 58 1037.1
20180117194858 21 336 6.0 19.0 0.00 0.00 0.00 58 1037.1
20180117194357 21 337 4.0 19.0 0.00 0.00 0.00 58 1037.1
20180117193856 21 346 4.0 15.0 0.00 0.00 0.00 59 1037.1
20180117193356 21 343 3.0 10.0 0.00 0.00 0.00 60 1037.4
20180117192855 21 326 4.0 13.0 0.00 0.00 0.00 61 1037.4
20180117192354 20 327 4.0 15.0 0.00 0.00 0.00 60 1037.1
20180117191854 20 316 4.0 15.0 0.00 0.00 0.00 61 1037.4
20180117191353 20 349 7.0 15.0 0.00 0.00 0.00 61 1037.1
20180117190852 20 357 9.0 15.0 0.00 0.00 0.00 60 1037.4
20180117190147 19 335 4.0 18.0 0.00 0.00 0.00 60 1037.4
20180117185615 20 356 12.0 18.0 0.00 0.00 0.00 59 1037.4
20180117185114 20 339 6.0 15.0 0.00 0.00 0.00 60 1037.4
20180117184542 21 354 6.0 15.0 0.00 0.00 0.00 61 1037.4
20180117184041 20 328 3.0 10.0 0.00 0.00 0.00 60 1037.8
20180117183438 20 279 2.0 10.0 0.00 0.00 0.00 62 1037.8
20180117182937 20 344 4.0 13.0 0.00 0.00 0.00 60 1037.8
20180117182437 20 334 4.0 14.0 0.00 0.00 0.00 62 1037.8
20180117181905 20 302 4.0 10.0 0.00 0.00 0.00 61 1038.1
20180117181404 20 337 4.0 10.0 0.00 0.00 0.00 61 1038.1
20180117180903 19 317 2.0 10.0 0.00 0.00 0.00 62 1038.1
20180117180402 20 317 3.0 10.0 0.00 0.00 0.00 62 1038.1
20180117175901 19 292 3.0 10.0 0.00 0.00 0.00 60 1038.1
20180117175330 19 316 2.0 11.0 0.00 0.00 0.00 63 1038.1
20180117174829 18 317 3.0 11.0 0.00 0.00 0.00 61 1038.1
20180117174328 19 333 3.0 10.0 0.00 0.00 0.00 61 1038.4
20180117173756 19 338 4.0 10.0 0.00 0.00 0.00 62 1038.4
20180117173255 19 331 3.0 9.0 0.00 0.00 0.00 62 1038.4
20180117172754 18 238 3.0 8.0 0.00 0.00 0.00 64 1038.4
20180117172253 18 253 2.0 10.0 0.00 0.00 0.00 64 1038.4
20180117171650 17 273 2.0 10.0 0.00 0.00 0.00 63 1038.4
20180117171149 17 301 3.0 11.0 0.00 0.00 0.00 63 1038.8
20180117170648 17 352 3.0 14.0 0.00 0.00 0.00 65 1038.8
20180117170148 17 350 5.0 14.0 0.00 0.00 0.00 63 1038.8
20180117165647 16 337 5.0 10.0 0.00 0.00 0.00 64 1038.8
20180117165146 16 275 2.0 14.0 0.00 0.00 0.00 64 1038.8
20180117164645 16 348 5.0 14.0 0.00 0.00 0.00 63 1038.8
20180117164144 16 277 3.0 18.0 0.00 0.00 0.00 64 1039.1
20180117163612 16 311 3.0 18.0 0.00 0.00 0.00 64 1038.8
20180117163111 16 355 5.0 16.0 0.00 0.00 0.00 63 1039.1
20180117162610 15 328 3.0 16.0 0.00 0.00 0.00 65 1038.8
20180117162109 15 349 6.0 16.0 0.00 0.00 0.00 64 1039.1
20180117161608 16 358 7.0 14.0 0.00 0.00 0.00 64 1039.1
20180117161108 16 234 4.0 8.0 0.00 0.00 0.00 65 1039.1
20180117160607 15 333 3.0 9.0 0.00 0.00 0.00 63 1039.1
20180117160035 15 304 2.0 9.0 0.00 0.00 0.00 66 1039.1
20180117155535 15 358 5.0 11.0 0.00 0.00 0.00 64 1039.1
20180117155034 14 332 4.0 11.0 0.00 0.00 0.00 65 1039.1
20180117154533 14 305 2.0 11.0 0.00 0.00 0.00 66 1039.1
20180117154032 14 294 2.0 13.0 0.00 0.00 0.00 67 1038.8
20180117153532 14 2 6.0 13.0 0.00 0.00 0.00 65 1039.1
20180117153031 14 354 5.0 13.0 0.00 0.00 0.00 65 1038.8
20180117152530 13 292 2.0 10.0 0.00 0.00 0.00 68 1038.8
20180117151959 13 235 2.0 11.0 0.00 0.00 0.00 68 1038.8
20180117151458 12 230 2.0 14.0 0.00 0.00 0.00 69 1038.8
20180117150956 12 282 2.0 15.0 0.00 0.00 0.00 69 1038.4
20180117150455 12 0 6.0 15.0 0.00 0.00 0.00 69 1038.4
20180117145954 11 350 4.0 11.0 0.00 0.00 0.00 71 1038.1
20180117145453 11 354 6.0 11.0 0.00 0.00 0.00 70 1038.1
20180117144952 11 257 1.0 7.0 0.00 0.00 0.00 71 1038.1
20180117144451 10 270 1.0 7.0 0.00 0.00 0.00 72 1038.1
20180117143950 10 343 3.0 9.0 0.00 0.00 0.00 72 1038.1
20180117143449 10 309 2.0 12.0 0.00 0.00 0.00 72 1037.8
20180117142948 9 347 5.0 12.0 0.00 0.00 0.00 73 1037.8
20180117142448 9 356 6.0 15.0 0.00 0.00 0.00 73 1037.4
20180117141947 9 344 5.0 15.0 0.00 0.00 0.00 73 1037.4
20180117141446 9 351 7.0 15.0 0.00 0.00 0.00 73 1037.4
20180117140945 8 353 5.0 13.0 0.00 0.00 0.00 74 1037.4
20180117140444 8 356 5.0 13.0 0.00 0.00 0.00 74 1037.4
20180117135943 8 336 3.0 13.0 0.00 0.00 0.00 75 1037.4
20180117135443 8 344 3.0 9.0 0.00 0.00 0.00 75 1037.4
20180117134911 7 337 3.0 9.0 0.00 0.00 0.00 76 1037.4
20180117134410 7 346 4.0 9.0 0.00 0.00 0.00 77 1037.4
20180117133909 7 325 2.0 9.0 0.00 0.00 0.00 77 1037.1
20180117133408 6 340 2.0 6.0 0.00 0.00 0.00 77 1037.1
20180117132907 6 350 2.0 8.0 0.00 0.00 0.00 77 1037.1
20180117132406 6 292 2.0 8.0 0.00 0.00 0.00 77 1037.1
20180117131906 6 288 2.0 5.0 0.00 0.00 0.00 78 1037.1
20180117131404 6 301 1.0 7.0 0.00 0.00 0.00 78 1037.1
20180117130904 6 288 1.0 7.0 0.00 0.00 0.00 78 1037.1
20180117130403 6 355 4.0 10.0 0.00 0.00 0.00 77 1037.1
20180117125903 6 353 1.0 10.0 0.00 0.00 0.00 77 1036.7
20180117125402 6 348 3.0 8.0 0.00 0.00 0.00 77 1036.7
20180117124831 6 286 1.0 10.0 0.00 0.00 0.00 77 1036.7
20180117124329 6 339 2.0 10.0 0.00 0.00 0.00 77 1036.7
20180117123757 6 339 3.0 10.0 0.00 0.00 0.00 76 1036.4
20180117123256 6 355 3.0 8.0 0.00 0.00 0.00 76 1036.7
20180117122755 6 350 2.0 8.0 0.00 0.00 0.00 76 1036.4
20180117122223 6 319 2.0 8.0 0.00 0.00 0.00 76 1036.4
20180117121651 6 315 2.0 12.0 0.00 0.00 0.00 76 1036.4
20180117121151 6 325 4.0 12.0 0.00 0.00 0.00 76 1036.4
20180117120650 6 20 2.0 16.0 0.00 0.00 0.00 76 1036.4
20180117120113 6 285 2.0 16.0 0.00 0.00 0.00 76 1036.4
20180117115612 6 22 2.0 9.0 0.00 0.00 0.00 76 1036.4
20180117115112 6 335 2.0 11.0 0.00 0.00 0.00 76 1036.4
20180117114540 6 346 5.0 11.0 0.00 0.00 0.00 76 1036.4
20180117114040 6 358 2.0 9.0 0.00 0.00 0.00 77 1036.4
20180117113538 6 8 5.0 9.0 0.00 0.00 0.00 76 1036.4
20180117113037 6 333 2.0 11.0 0.00 0.00 0.00 77 1036.4
20180117112536 6 335 2.0 11.0 0.00 0.00 0.00 77 1036.7
20180117112036 6 331 2.0 6.0 0.00 0.00 0.00 77 1036.4
20180117111535 6 344 2.0 6.0 0.00 0.00 0.00 77 1036.4
20180117111034 6 319 0.0 8.0 0.00 0.00 0.00 76 1036.4
20180117110533 6 341 2.0 8.0 0.00 0.00 0.00 76 1036.4
20180117110032 6 326 2.0 8.0 0.00 0.00 0.00 76 1036.4
20180117105531 6 348 3.0 8.0 0.00 0.00 0.00 76 1036.4
20180117105030 6 334 3.0 9.0 0.00 0.00 0.00 76 1036.4
20180117104458 6 353 4.0 9.0 0.00 0.00 0.00 75 1036.1
20180117103958 6 355 3.0 5.0 0.00 0.00 0.00 76 1036.1
20180117103426 7 273 2.0 5.0 0.00 0.00 0.00 75 1036.1
20180117102925 7 347 3.0 6.0 0.00 0.00 0.00 75 1036.1
20180117102425 7 326 3.0 6.0 0.00 0.00 0.00 75 1036.1
20180117101924 7 352 3.0 7.0 0.00 0.00 0.00 75 1036.1
20180117101424 7 327 2.0 7.0 0.00 0.00 0.00 75 1036.1
20180117100922 7 352 3.0 9.0 0.00 0.00 0.00 75 1036.1